This is the latest recevied weather packets stored in our database for station/object IT9DBI-3. If no packets are shown the sender has not sent any weather packets the latest 10 day(s).
| Time | Temp. | Humidity | Pressure | Rain* | Wind** | Luminosity | Snow |
|---|---|---|---|---|---|---|---|
| 1778041741 | 17.22° C | 73% | 1012.8 hPa | - | - | - | - |
| 1778040540 | 17.78° C | 62% | 1012.6 hPa | - | - | - | - |
| 1778039338 | 17.78° C | 62% | 1012.4 hPa | - | - | - | - |
| 1778038137 | 17.78° C | 68% | 1012.5 hPa | - | - | - | - |
| 1778036936 | 18.33° C | 60% | 1012.4 hPa | - | - | - | - |
| 1778035734 | 18.33° C | 47% | 1012.3 hPa | - | - | - | - |
| 1778034533 | 18.89° C | 39% | 1012.2 hPa | - | - | - | - |
| 1778033331 | 18.89° C | 36% | 1012.2 hPa | - | - | - | - |
| 1778032130 | 17.78° C | 40% | 1012.4 hPa | - | - | - | - |
| 1778030929 | 20° C | 26% | 1012.4 hPa | - | - | - | - |
| 1778029728 | 19.44° C | 27% | 1012.6 hPa | - | - | - | - |
| 1778027317 | 21.11° C | 20% | 1012.6 hPa | - | - | - | - |
| 1778024908 | 19.44° C | 28% | 1012.7 hPa | - | - | - | - |
| 1778023707 | 17.78° C | 47% | 1013 hPa | - | - | - | - |
| 1778022505 | 19.44° C | 46% | 1013.1 hPa | - | - | - | - |
| 1778021304 | 18.33° C | 53% | 1013.2 hPa | - | - | - | - |
| 1778020103 | 18.33° C | 64% | 1013.7 hPa | - | - | - | - |
| 1778018901 | 18.33° C | 63% | 1014 hPa | - | - | - | - |
| 1778017699 | 18.33° C | 76% | 1014.2 hPa | - | - | - | - |
| 1778016498 | 17.78° C | 87% | 1014.4 hPa | - | - | - | - |
| 1778015296 | 17.78° C | 84% | 1014.4 hPa | - | - | - | - |
| 1778014095 | 18.33° C | 83% | 1014.5 hPa | - | - | - | - |
| 1778012894 | 18.33° C | 84% | 1014.6 hPa | - | - | - | - |
| 1778011692 | 17.78° C | 90% | 1014.8 hPa | - | - | - | - |
| 1778010490 | 17.22° C | 92% | 1015.1 hPa | - | - | - | - |
* Rain since midnight (hover to see other rain measurements)
** Current wind speed in m/s (hover to see current wind gust speed)